1512493200.28,13395,3.31,73286.3,-9.03,-9.75,-9.75,0,*57
1512493201.5,13396,3.31,73274.5,-8.99,-9.71,-9.67,0,*51
1512493202.74,13397,3.31,73270.8,-9.03,-9.71,-9.75,0,*51
1512493203.97,13398,3.31,73266.3,-9.03,-9.71,-9.75,0,*5E
1512493205.2,13399,3.31,73242.0,-9.03,-9.75,-9.75,0,*5B
1512493206.4,13400,3.31,73266.3,-9.05,-9.75,-9.75,0,*5A
1512493207.63,13401,3.31,73292.3,-8.99,-9.79,-9.79,0,*5F
1512493208.85,13402,3.31,73288.8,-8.99,-9.67,-9.67,0,*5C
1512493210.09,13403,3.31,73284.8,-8.99,-9.57,-9.67,0,*5E
1512493211.32,13404,3.31,73306.0,-8.99,-9.71,-9.71,0,*5A
1512493212.55,13405,3.31,73314.3,-9.03,-9.71,-9.71,0,*59
1512493213.78,13406,3.31,73310.8,-9.03,-9.71,-9.75,0,*5E
1512493215.01,13407,3.31,73310.0,-9.03,-9.75,-9.71,0,*5F
1512493216.24,13408,3.31,73328.3,-9.03,-9.75,-9.71,0,*50
1512493217.5,13409,3.25,73322.3,-9.03,-9.71,-9.61,0,*54
1512493218.73,13410,3.31,73328.0,-9.03,-9.71,-9.75,0,*59
1512493219.96,13411,3.31,73334.3,-9.03,-9.75,-9.71,0,*58
1512493221.19,13412,3.31,73330.3,-8.99,-9.71,-9.71,0,*5D
1512493222.42,13413,3.31,73318.8,-8.99,-9.71,-9.71,0,*5C
1512493223.64,13414,3.31,73312.5,-8.97,-9.83,-9.71,0,*58
1512493224.88,13415,3.31,73316.8,-8.99,-9.83,-9.71,0,*57
1512493226.11,13416,3.31,73322.5,-8.99,-9.71,-9.79,0,*51
1512493227.36,13417,3.31,73336.5,-8.99,-9.83,-9.71,0,*55
1512493228.58,13418,3.31,73370.3,-8.99,-9.79,-9.79,0,*57
1512493229.85,13419,3.31,73380.8,-8.99,-9.83,-9.83,0,*56
1512493231.06,13420,3.31,73382.8,-8.99,-9.89,-9.89,0,*5C
1512493232.28,13421,3.31,73384.0,-8.99,-9.89,-9.89,0,*5D
1512493233.49,13422,3.31,73378.5,-8.99,-9.89,-9.97,0,*51
1512493234.69,13423,3.31,73372.3,-9.05,-9.89,-9.93,0,*50
1512493235.93,13424,3.31,73366.8,-9.03,-9.83,-9.89,0,*50
1512493237.15,13425,3.31,73358.5,-9.05,-9.83,-9.89,0,*57
1512493238.37,13426,3.31,73352.3,-9.03,-9.89,-9.89,0,*58
1512493239.64,13427,3.31,73354.0,-8.99,-9.83,-9.83,0,*5B
1512493240.91,13428,3.31,73348.3,-8.99,-9.83,-9.83,0,*54
1512493242.17,13429,3.31,73350.5,-8.99,-9.83,-9.83,0,*55
1512493243.39,13430,3.31,73350.3,-9.03,-9.89,-9.89,0,*5F
1512493244.64,13431,3.31,73350.3,-9.03,-9.89,-9.83,0,*54
1512493245.88,13432,3.31,73350.3,-9.03,-9.89,-9.83,0,*57
1512493247.07,13433,3.31,73350.5,-9.05,-9.89,-9.89,0,*5A
1512493248.32,13434,3.31,73342.8,-9.03,-9.89,-9.83,0,*51
1512493249.54,13435,3.31,73338.8,-9.05,-9.89,-9.83,0,*56
1512493250.81,13436,3.31,73324.3,-9.03,-9.83,-9.83,0,*59
1512493252.08,13437,3.31,73320.8,-9.03,-9.83,-9.83,0,*58
1512493253.32,13438,3.31,73328.0,-9.03,-9.83,-9.89,0,*5D
1512493254.54,13439,3.31,73334.0,-9.03,-9.89,-9.89,0,*56
1512493255.81,13440,3.31,73334.0,-9.03,-9.83,-9.83,0,*58
1512493257.08,13441,3.31,73322.8,-9.03,-9.83,-9.83,0,*59
1512493258.33,13442,3.31,73342.0,-9.03,-9.75,-9.83,0,*53
1512493259.56,13443,3.31,73360.8,-9.03,-9.75,-9.71,0,*5F
1512493260.8,13444,3.31,73374.3,-9.03,-9.71,-9.71,0,*5C
1512493262.05,13445,3.31,73378.8,-9.03,-9.61,-9.71,0,*5C
1512493263.27,13446,3.31,73368.5,-9.03,-9.75,-9.75,0,*5E
1512493264.5,13447,3.31,73396.5,-9.03,-9.75,-9.75,0,*5F
1512493265.71,13448,3.31,73386.8,-9.05,-9.75,-9.71,0,*52
1512493266.94,13449,3.31,73386.5,-9.03,-9.71,-9.71,0,*51
1512493268.17,13450,3.31,73388.3,-9.03,-9.75,-9.71,0,*5D
1512493269.4,13451,3.31,73380.0,-9.03,-9.71,-9.71,0,*58
1512493270.65,13452,3.31,73368.5,-9.03,-9.83,-9.75,0,*52
1512493271.92,13453,3.31,73368.5,-9.03,-9.83,-9.83,0,*5A
1512493273.15,13454,3.31,73374.8,-9.03,-9.75,-9.75,0,*5D
1512493274.39,13455,3.31,73374.5,-9.03,-9.89,-9.83,0,*56
1512493275.62,13456,3.31,73368.0,-9.03,-9.93,-9.93,0,*5F
1512493276.86,13457,3.31,73352.3,-9.03,-9.93,-9.83,0,*5F
1512493278.13,13458,3.31,73358.3,-9.03,-9.83,-9.83,0,*51
1512493279.36,13459,3.31,73356.3,-8.99,-9.79,-9.79,0,*52
1512493280.6,13460,3.31,73352.5,-9.03,-9.89,-9.83,0,*50
1512493281.83,13461,3.31,73346.3,-9.03,-9.75,-9.75,0,*5B
1512493283.08,13462,3.31,73360.8,-9.03,-9.83,-9.75,0,*51
1512493284.32,13463,3.31,73366.0,-9.03,-9.83,-9.75,0,*50
1512493285.55,13464,3.31,73364.8,-9.03,-9.75,-9.75,0,*5E
1512493286.81,13465,3.31,73368.3,-9.03,-9.75,-9.83,0,*56
1512493288.08,13466,3.31,73372.3,-9.03,-9.83,-9.83,0,*5C
1512493289.31,13467,3.31,73376.8,-9.03,-9.75,-9.71,0,*59
1512493290.53,13468,3.31,73370.3,-9.05,-9.83,-9.75,0,*5D
1512493291.78,13469,3.31,73366.8,-9.03,-9.75,-9.83,0,*5A
1512493293.01,13470,3.31,73366.5,-9.05,-9.75,-9.61,0,*58
1512493294.24,13471,3.31,73366.5,-9.03,-9.75,-9.75,0,*5A
1512493295.47,13472,3.31,73362.5,-9.03,-9.75,-9.71,0,*5D
1512493296.7,13473,3.31,73364.3,-9.03,-9.75,-9.71,0,*5C
1512493297.9,13474,3.31,73364.8,-9.05,-9.75,-9.75,0,*59
1512493299.13,13475,3.31,73362.8,-9.03,-9.75,-9.75,0,*5E
1512493300.34,13476,3.31,73360.8,-9.05,-9.71,-9.71,0,*5B
1512493301.57,13477,3.31,73362.3,-9.03,-9.75,-9.75,0,*5C
1512493302.77,13478,3.31,73354.8,-9.05,-9.75,-9.75,0,*55
1512493304.0,13479,3.31,73342.8,-9.03,-9.75,-9.71,0,*56
1512493305.25,13480,3.31,73336.0,-9.03,-9.75,-9.61,0,*51
1512493306.48,13481,3.31,73328.0,-9.03,-9.75,-9.71,0,*51
1512493307.73,13482,3.31,73326.8,-9.03,-9.75,-9.61,0,*53
1512493308.94,13483,3.31,73324.5,-9.05,-9.71,-9.71,0,*51
1512493310.15,13484,3.31,73320.0,-9.05,-9.71,-9.75,0,*52
1512493311.38,13485,3.31,73316.0,-9.03,-9.75,-9.75,0,*51
1512493312.6,13486,3.31,73310.5,-8.99,-9.67,-9.71,0,*57
1512493313.83,13487,3.31,73304.3,-8.99,-9.71,-9.71,0,*51
1512493315.06,13488,3.31,73298.5,-9.03,-9.75,-9.71,0,*58
1512493316.29,13489,3.31,73300.0,-9.03,-9.75,-9.75,0,*5D
1512493317.54,13490,3.31,73306.8,-9.03,-9.75,-9.83,0,*5C
1512493318.77,13491,3.31,73312.8,-9.03,-9.75,-9.75,0,*54
1512493320.0,13492,3.31,73316.8,-9.03,-9.75,-9.71,0,*53
1512493321.2,13493,3.31,73322.5,-9.05,-9.75,-9.75,0,*50
1512493322.43,13494,3.31,73324.8,-9.03,-9.75,-9.71,0,*55
1512493323.68,13495,3.31,73334.0,-9.03,-9.75,-9.83,0,*59
1512493324.91,13496,3.31,73340.5,-8.99,-9.71,-9.67,0,*56
1512493326.14,13497,3.31,73346.3,-9.03,-9.75,-9.75,0,*52
1512493327.39,13498,3.31,73352.5,-9.03,-9.75,-9.83,0,*54
1512493328.63,13499,3.31,73360.0,-9.03,-9.71,-9.75,0,*58
1512493329.85,13500,3.31,73360.0,-9.03,-9.75,-9.71,0,*59
1512493331.08,13501,3.31,73356.8,-9.03,-9.75,-9.75,0,*5C
1512493332.35,13502,3.31,73342.8,-9.03,-9.83,-9.83,0,*5F
1512493333.62,13503,3.31,73342.3,-9.03,-9.83,-9.83,0,*5E
1512493334.88,13504,3.31,73348.8,-9.03,-9.75,-9.83,0,*50
1512493336.11,13505,3.31,73346.5,-9.03,-9.75,-9.71,0,*5C
1512493337.34,13506,3.31,73340.0,-9.03,-9.75,-9.71,0,*5F
1512493338.57,13507,3.31,73336.3,-9.03,-9.71,-9.71,0,*5A
1512493339.8,13508,3.31,73344.0,-9.03,-9.75,-9.75,0,*55
1512493341.03,13509,3.31,73354.0,-9.03,-9.75,-9.71,0,*50
1512493342.25,13510,3.31,73354.3,-9.03,-9.75,-9.75,0,*5C
1512493343.48,13511,3.31,73358.3,-9.03,-9.75,-9.75,0,*5D
1512493344.71,13512,3.31,73364.5,-9.03,-9.71,-9.75,0,*5A
1512493345.95,13513,3.31,73362.8,-9.03,-9.71,-9.75,0,*5B
1512493347.18,13514,3.31,73366.3,-9.03,-9.71,-9.71,0,*58
1512493348.41,13515,3.31,73370.3,-9.03,-9.75,-9.71,0,*5D
1512493349.64,13516,3.31,73366.8,-9.03,-9.75,-9.71,0,*5E
1512493350.87,13517,3.31,73372.0,-9.03,-9.71,-9.71,0,*5B
1512493352.08,13518,3.31,73358.3,-9.05,-9.71,-9.75,0,*56
1512493353.3,13519,3.31,73354.8,-8.99,-9.67,-9.71,0,*50
1512493354.53,13520,3.31,73364.0,-9.03,-9.71,-9.71,0,*5F
1512493355.74,13521,3.31,73372.8,-9.05,-9.75,-9.75,0,*58
1512493356.97,13522,3.31,73356.0,-9.03,-9.75,-9.75,0,*5D
1512493358.17,13523,3.31,73334.3,-9.05,-9.71,-9.71,0,*5A
1512493359.42,13524,3.31,73328.8,-9.03,-9.61,-9.71,0,*5A
1512493360.65,13525,3.31,73334.3,-9.03,-9.75,-9.75,0,*5A
1512493361.9,13526,3.31,73334.3,-9.03,-9.89,-9.83,0,*53
1512493363.11,13527,3.31,73350.0,-9.03,-9.89,-9.89,0,*58
1512493364.33,13528,3.31,73352.0,-9.03,-9.89,-9.89,0,*57
1512493365.55,13529,3.31,73356.0,-9.05,-9.89,-9.83,0,*5A
1512493366.77,13530,3.31,73358.8,-9.05,-9.89,-9.83,0,*52
1512493368.04,13531,3.31,73364.0,-9.03,-9.83,-9.83,0,*5F
1512493369.29,13532,3.31,73358.8,-9.03,-9.89,-9.83,0,*56
1512493370.48,13533,3.31,73360.8,-9.05,-9.89,-9.89,0,*5B
1512493371.73,13534,3.31,73366.0,-9.05,-9.83,-9.83,0,*5C
1512493372.97,13535,3.31,73374.8,-9.05,-9.83,-9.83,0,*5D
1512493374.19,13536,3.31,73370.3,-9.03,-9.89,-9.75,0,*5B
1512493375.46,13537,3.31,73376.5,-9.03,-9.83,-9.83,0,*59
1512493376.69,13538,3.31,73376.8,-9.03,-9.71,-9.75,0,*52
1512493377.9,13539,3.31,73366.3,-9.05,-9.71,-9.75,0,*55
1512493379.13,13540,3.31,73374.5,-9.03,-9.75,-9.71,0,*5D
1512493380.4,13541,3.31,73380.5,-9.03,-9.57,-9.61,0,*5D
1512493381.67,13542,3.31,73380.3,-9.03,-9.61,-9.61,0,*5B
1512493382.9,13543,3.31,73378.3,-9.03,-9.71,-9.75,0,*5E
1512493384.13,13544,3.31,73374.5,-9.03,-9.75,-9.75,0,*5D
1512493385.38,13545,3.31,73366.3,-9.03,-9.75,-9.83,0,*55
1512493386.62,13546,3.31,73362.3,-9.03,-9.75,-9.71,0,*5B
1512493387.88,13547,3.31,73366.0,-9.03,-9.61,-9.57,0,*5B
1512493389.15,13548,3.31,73370.8,-9.03,-9.57,-9.61,0,*54
1512493390.43,13549,3.31,73372.0,-9.03,-9.49,-9.61,0,*5A
1512493391.7,13550,3.31,73366.3,-9.03,-9.61,-9.61,0,*58
1512493392.95,13551,3.31,73350.8,-9.03,-9.71,-9.61,0,*58
1512493394.21,13552,3.31,73342.0,-9.03,-9.23,-9.37,0,*5F
1512493395.46,13553,3.31,73338.8,-9.03,-9.37,-9.31,0,*5D
1512493396.73,13554,3.31,73332.8,-9.03,-9.49,-9.57,0,*53
1512493398.0,13555,3.31,73316.0,-9.03,-9.57,-9.49,0,*52
1512493399.26,13556,3.31,73302.8,-8.99,-9.57,-9.57,0,*5C
1512493400.49,13557,3.31,73302.3,-8.99,-9.71,-9.67,0,*5A
1512493401.72,13558,3.31,73302.3,-8.99,-9.71,-9.67,0,*55
1512493402.95,13559,3.31,73296.8,-8.99,-9.71,-9.71,0,*53
1512493404.17,13560,3.31,73272.8,-8.99,-9.67,-9.67,0,*59
1512493405.4,13561,3.31,73254.0,-8.99,-9.71,-9.67,0,*5F
1512493406.63,13562,3.31,73240.0,-8.99,-9.71,-9.71,0,*5B
1512493407.86,13563,3.31,73244.0,-8.99,-9.71,-9.71,0,*5A
1512493409.09,13564,3.31,73254.3,-8.99,-9.71,-9.71,0,*5D
1512493410.32,13565,3.31,73258.5,-8.99,-9.71,-9.79,0,*54
1512493411.55,13566,3.31,73266.0,-8.99,-9.71,-9.71,0,*5F
1512493412.77,13567,3.31,73276.3,-8.99,-9.79,-9.71,0,*56
1512493414.02,13568,3.31,73280.5,-8.99,-9.79,-9.83,0,*54
1512493415.25,13569,3.31,73284.5,-8.99,-9.79,-9.79,0,*50
1512493416.52,13570,3.31,73302.5,-8.99,-9.83,-9.83,0,*58
1512493417.74,13571,3.31,73300.8,-8.99,-9.79,-9.67,0,*56
1512493418.94,13572,3.31,73304.8,-8.97,-9.79,-9.67,0,*5B
1512493420.17,13573,3.31,73310.3,-8.99,-9.71,-9.67,0,*5C
1512493421.4,13574,3.31,73308.5,-9.03,-9.71,-9.71,0,*5E
1512493422.64,13575,3.31,73308.0,-9.03,-9.71,-9.75,0,*5B
1512493423.86,13576,3.31,73312.0,-8.99,-9.67,-9.67,0,*5E
1512493425.09,13577,3.31,73318.0,-8.99,-9.71,-9.67,0,*58
1512493426.32,13578,3.31,73308.5,-8.99,-9.71,-9.67,0,*57
1512493427.56,13579,3.31,73304.5,-8.99,-9.57,-9.67,0,*52
1512493428.82,13580,3.31,73300.5,-8.99,-9.53,-9.57,0,*53
1512493430.07,13581,3.31,73296.8,-9.03,-9.37,-9.31,0,*52
1512493431.35,13582,3.31,73306.8,-8.99,-9.41,-9.45,0,*51
1512493432.62,13583,3.31,73302.5,-8.99,-9.57,-9.53,0,*50
1512493433.84,13584,3.31,73312.8,-8.99,-9.67,-9.67,0,*53
1512493435.09,13585,3.31,73326.5,-8.99,-9.71,-9.57,0,*56
1512493436.33,13586,3.31,73324.5,-8.99,-9.67,-9.57,0,*52
1512493437.61,13587,3.31,73332.0,-8.99,-9.53,-9.53,0,*50
1512493438.88,13588,3.31,73332.0,-8.99,-9.57,-9.53,0,*5B
1512493440.13,13589,3.31,73340.0,-8.97,-9.53,-9.53,0,*50
1512493441.4,13590,3.31,73346.3,-8.99,-9.53,-9.53,0,*56
1512493442.66,13591,3.31,73346.0,-8.99,-9.57,-9.45,0,*54
1512493443.91,13592,3.31,73340.3,-8.97,-9.53,-9.53,0,*5A
1512493445.17,13593,3.31,73332.8,-8.97,-9.41,-9.53,0,*58
1512493446.4,13594,3.31,73328.3,-8.99,-9.19,-8.85,0,*56
1512493447.62,13595,3.31,73336.8,-8.99,-9.19,-9.19,0,*53
1512493448.87,13596,3.31,73332.5,-8.97,-9.45,-9.41,0,*5A
1512493450.14,13597,3.31,73320.8,-8.99,-9.53,-9.45,0,*56
1512493451.42,13598,3.31,73328.5,-8.99,-9.53,-9.53,0,*5E
1512493452.65,13599,3.31,73322.0,-8.97,-9.57,-9.57,0,*51
1512493453.89,13600,3.31,73322.3,-8.97,-9.57,-9.57,0,*52
1512493455.11,13601,3.31,73328.5,-8.97,-9.67,-9.57,0,*50
1512493456.31,13602,3.31,73338.0,-8.97,-9.67,-9.67,0,*50
1512493457.53,13603,3.31,73328.8,-8.99,-9.67,-9.67,0,*5F
1512493458.73,13604,3.31,73332.5,-8.97,-9.67,-9.67,0,*56
1512493459.93,13605,3.31,73332.0,-8.97,-9.67,-9.67,0,*57
1512493461.15,13606,3.31,73330.3,-8.97,-9.67,-9.57,0,*57
1512493462.38,13607,3.31,73326.0,-8.97,-9.71,-9.57,0,*51
1512493463.6,13608,3.31,73328.5,-8.97,-9.67,-9.57,0,*59
1512493464.84,13609,3.31,73336.3,-8.97,-9.57,-9.57,0,*5B
1512493466.05,13610,3.31,73348.3,-8.97,-9.57,-9.67,0,*50
1512493467.29,13611,3.31,73352.0,-8.97,-9.57,-9.57,0,*52
1512493468.51,13612,3.31,73360.5,-8.97,-9.57,-9.67,0,*52
1512493469.74,13613,3.31,73376.5,-8.99,-9.71,-9.67,0,*59
1512493470.95,13614,3.31,73362.8,-8.97,-9.71,-9.71,0,*57
1512493472.21,13615,3.31,73374.8,-8.95,-9.61,-9.61,0,*54
1512493473.41,13616,3.31,73378.3,-8.97,-9.67,-9.71,0,*52
1512493474.64,13617,3.31,73378.5,-8.99,-9.67,-9.71,0,*5D
1512493475.84,13618,3.31,73382.5,-8.97,-9.71,-9.71,0,*5B
1512493477.06,13619,3.31,73362.0,-8.97,-9.83,-9.79,0,*5F
1512493478.31,13620,3.31,73350.0,-8.97,-9.83,-9.83,0,*50
1512493479.53,13621,3.31,73344.0,-8.97,-9.83,-9.79,0,*54
1512493480.77,13622,3.31,73330.8,-8.99,-9.83,-9.79,0,*59
1512493481.98,13623,3.31,73320.5,-8.97,-9.71,-9.67,0,*54
1512493483.18,13624,3.31,73316.8,-8.97,-9.71,-9.67,0,*53
1512493484.45,13625,3.31,73314.3,-8.99,-9.57,-9.53,0,*5F
1512493485.65,13626,3.31,73320.5,-8.97,-9.67,-9.67,0,*56
1512493486.87,13627,3.31,73316.3,-8.97,-9.67,-9.57,0,*54
1512493488.1,13628,3.31,73322.5,-8.97,-9.71,-9.57,0,*5C
1512493489.32,13629,3.31,73334.5,-8.97,-9.67,-9.57,0,*5A
1512493490.53,13630,3.31,73346.3,-8.97,-9.67,-9.57,0,*52
1512493491.77,13631,3.31,73352.3,-8.97,-9.57,-9.57,0,*50
1512493492.99,13632,3.31,73352.3,-8.97,-9.67,-9.57,0,*50
1512493494.2,13633,3.31,73378.5,-8.97,-9.79,-9.71,0,*5A
1512493495.42,13634,3.31,73382.5,-8.99,-9.67,-9.71,0,*5C
1512493496.63,13635,3.31,73362.5,-8.97,-9.71,-9.67,0,*53
1512493497.83,13636,3.31,73352.3,-8.97,-9.71,-9.71,0,*57
1512493499.03,13637,3.31,73336.5,-8.97,-9.67,-9.67,0,*56
1512493500.23,13638,3.31,73330.8,-8.97,-9.67,-9.71,0,*5E
1512493501.44,13639,3.31,73328.5,-8.97,-9.71,-9.71,0,*58
1512493502.66,13640,3.31,73328.3,-8.99,-9.79,-9.79,0,*58
1512493503.91,13641,3.31,73324.0,-8.97,-9.83,-9.83,0,*57
1512493505.15,13642,3.31,73324.5,-8.97,-9.83,-9.83,0,*54
1512493506.4,13643,3.31,73322.3,-8.99,-9.79,-9.83,0,*5E
1512493507.64,13644,3.31,73330.3,-8.99,-9.83,-9.79,0,*59
1512493508.89,13645,3.31,73364.0,-8.99,-9.83,-9.71,0,*50
1512493510.11,13646,3.31,73358.5,-8.99,-9.79,-9.71,0,*56
1512493511.32,13647,3.31,73366.0,-8.97,-9.79,-9.71,0,*59
1512493512.54,13648,3.31,73356.3,-8.97,-9.83,-9.71,0,*53
1512493513.76,13649,3.31,73352.0,-8.99,-9.79,-9.71,0,*59
1512493514.99,13650,3.31,73360.5,-8.99,-9.79,-9.79,0,*59
1512493516.21,13651,3.31,73366.3,-8.97,-9.83,-9.71,0,*5B
1512493517.45,13652,3.31,73366.3,-8.99,-9.83,-9.79,0,*5E
1512493518.68,13653,3.31,73362.5,-8.97,-9.79,-9.83,0,*51
1512493519.95,13654,3.31,73358.3,-8.99,-9.83,-9.83,0,*5D
1512493521.2,13655,3.31,73358.5,-8.99,-9.71,-9.83,0,*51
1512493522.44,13656,3.31,73360.5,-8.99,-9.83,-9.79,0,*5A
1512493523.66,13657,3.31,73360.3,-8.99,-9.89,-9.89,0,*5E
1512493524.87,13658,3.31,73362.3,-8.99,-9.89,-9.89,0,*51
1512493526.09,13659,3.31,73368.3,-8.97,-9.83,-9.89,0,*54
1512493527.33,13660,3.31,73378.3,-8.99,-9.83,-9.71,0,*57
1512493528.56,13661,3.31,73372.8,-8.99,-9.79,-9.79,0,*5B
1512493529.77,13662,3.31,73366.3,-8.97,-9.71,-9.67,0,*51
1512493530.97,13663,3.31,73348.0,-8.97,-9.79,-9.71,0,*5F
1512493532.17,13664,3.31,73346.8,-8.97,-9.79,-9.71,0,*58
1512493533.4,13665,3.31,73346.8,-8.99,-9.79,-9.79,0,*5F
1512493534.62,13666,3.31,73330.8,-8.99,-9.79,-9.71,0,*54
1512493535.85,13667,3.31,73336.3,-8.99,-9.71,-9.79,0,*55
1512493537.08,13668,3.31,73346.5,-8.99,-9.67,-9.71,0,*55
1512493538.28,13669,3.31,73358.3,-8.97,-9.71,-9.71,0,*5D
1512493539.51,13670,3.31,73368.5,-8.99,-9.71,-9.71,0,*5B
1512493540.71,13671,3.31,73364.5,-8.97,-9.79,-9.79,0,*54
1512493541.94,13672,3.31,73366.0,-8.99,-9.79,-9.79,0,*59
1512493543.16,13673,3.31,73372.5,-8.99,-9.79,-9.71,0,*50
1512493544.37,13674,3.31,73360.0,-8.97,-9.71,-9.71,0,*51
1512493545.6,13675,3.31,73360.8,-8.99,-9.71,-9.71,0,*5E
1512493546.82,13676,3.31,73362.3,-8.99,-9.67,-9.67,0,*5D
1512493548.04,13677,3.31,73376.3,-8.97,-9.67,-9.57,0,*51
1512493549.28,13678,3.31,73380.0,-8.99,-9.67,-9.57,0,*50
1512493550.49,13679,3.31,73382.0,-8.97,-9.71,-9.67,0,*5B
1512493551.72,13680,3.31,73374.3,-8.99,-9.79,-9.71,0,*5C
1512493552.92,13681,3.31,73374.3,-8.97,-9.71,-9.71,0,*5B
1512493554.19,13682,3.31,73364.0,-8.99,-9.83,-9.83,0,*56
1512493555.42,13683,3.31,73372.5,-8.99,-10.01,-9.97,0,*60
1512493556.63,13684,3.31,73366.8,-8.99,-9.97,-9.89,0,*5F
1512493557.85,13685,3.31,73368.8,-8.99,-9.97,-9.97,0,*51
1512493559.07,13686,3.31,73364.3,-8.99,-9.97,-9.97,0,*52
1512493560.29,13687,3.31,73330.8,-8.99,-9.97,-9.97,0,*53
1512493561.5,13688,3.31,73318.3,-8.99,-9.89,-9.89,0,*5C
1512493562.75,13689,3.31,73312.0,-8.99,-9.83,-9.79,0,*58
1512493564.01,13690,3.31,73316.0,-8.99,-9.83,-9.83,0,*55
1512493565.23,13691,3.31,73342.0,-9.03,-9.89,-9.89,0,*56
1512493566.46,13692,3.31,73358.3,-8.99,-9.79,-9.79,0,*57
1512493567.73,13693,3.31,73320.8,-9.03,-9.83,-9.83,0,*54
1512493569.0,13694,3.31,73304.0,-9.03,-9.83,-9.83,0,*53
1512493570.27,13695,3.31,73340.0,-9.03,-9.83,-9.83,0,*52
1512493571.5,13696,3.31,73356.5,-9.03,-9.75,-9.75,0,*51
1512493572.74,13697,3.31,73344.8,-9.03,-9.89,-9.83,0,*5A
1512493573.98,13698,3.31,73350.3,-9.03,-9.89,-9.83,0,*55
1512493575.2,13699,3.31,73350.3,-9.03,-9.89,-9.89,0,*5E
1512493576.43,13700,3.31,73360.5,-8.99,-9.79,-9.71,0,*55
1512493577.63,13701,3.31,73380.0,-8.97,-9.79,-9.71,0,*5A
1512493578.9,13702,3.31,73370.3,-9.03,-9.83,-9.83,0,*5D
1512493580.17,13703,3.31,73360.8,-9.03,-9.83,-9.83,0,*5C
1512493581.39,13704,3.31,73362.8,-9.03,-9.89,-9.89,0,*5B
1512493582.66,13705,3.31,73322.8,-9.03,-9.83,-9.83,0,*5A
1512493583.91,13706,3.31,73326.5,-9.03,-9.83,-9.71,0,*54
1512493585.14,13707,3.31,73344.8,-9.03,-9.75,-9.75,0,*58
1512493586.36,13708,3.31,73342.8,-9.03,-9.75,-9.89,0,*54
1512493587.63,13709,3.31,73328.8,-8.99,-9.83,-9.83,0,*54
1512493588.86,13710,3.31,73324.8,-8.99,-9.79,-9.79,0,*5C
1512493590.1,13711,3.31,73366.3,-8.99,-9.79,-9.83,0,*58
1512493591.37,13712,3.31,73372.3,-8.99,-9.83,-9.83,0,*5E
1512493592.6,13713,3.31,73370.0,-8.99,-9.79,-9.79,0,*5F
1512493593.82,13714,3.31,73364.5,-8.99,-9.79,-9.79,0,*58
1512493595.05,13715,3.31,73352.8,-8.99,-9.67,-9.67,0,*59
1512493596.28,13716,3.31,73336.8,-8.97,-9.57,-9.57,0,*54
1512493597.51,13717,3.31,73324.3,-8.99,-9.71,-9.67,0,*5C
1512493598.74,13718,3.31,73326.5,-9.03,-9.75,-9.75,0,*56
1512493599.99,13719,3.31,73344.5,-9.03,-9.75,-9.83,0,*5E
1512493601.22,13720,3.31,73356.0,-8.99,-9.71,-9.71,0,*5F
1512493602.45,13721,3.31,73350.0,-8.99,-9.67,-9.71,0,*59
1512493603.68,13722,3.31,73350.3,-8.99,-9.71,-9.67,0,*5A
1512493604.9,13723,3.31,73348.8,-8.99,-9.71,-9.67,0,*5B
1512493606.13,13724,3.31,73352.8,-8.99,-9.67,-9.71,0,*5C
1512493607.36,13725,3.31,73348.5,-9.03,-9.71,-9.75,0,*5C
1512493608.56,13726,3.31,73342.5,-9.05,-9.75,-9.75,0,*5D
1512493609.79,13727,3.31,73352.3,-9.03,-9.75,-9.75,0,*5A
1512493611.02,13728,3.31,73358.5,-8.99,-9.79,-9.79,0,*57
1512493612.26,13729,3.31,73366.0,-8.99,-9.83,-9.79,0,*53
1512493613.49,13730,3.31,73378.8,-8.99,-9.71,-9.71,0,*5E
1512493614.72,13731,3.31,73382.3,-8.99,-9.71,-9.67,0,*58
1512493615.94,13732,3.31,73378.5,-8.99,-9.67,-9.71,0,*5B
1512493617.16,13733,3.31,73372.0,-8.99,-9.67,-9.67,0,*5D
1512493618.39,13734,3.31,73376.0,-8.99,-9.67,-9.71,0,*5D
1512493619.59,13735,3.31,73382.3,-8.97,-9.67,-9.67,0,*55
1512493620.81,13736,3.31,73382.0,-8.99,-9.79,-9.71,0,*50
1512493622.08,13737,3.31,73376.5,-8.99,-9.83,-9.83,0,*59
1512493623.35,13738,3.31,73380.8,-8.99,-9.83,-9.83,0,*56
1512493624.57,13739,3.31,73382.0,-8.99,-9.89,-9.79,0,*58
1512493625.79,13740,3.31,73386.8,-8.99,-9.79,-9.79,0,*59
1512493627.06,13741,3.31,73380.0,-8.99,-9.83,-9.83,0,*58
1512493628.28,13742,3.31,73382.8,-8.99,-9.97,-9.89,0,*54
1512493629.49,13743,3.31,73378.5,-8.99,-9.89,-9.89,0,*5A
1512493630.71,13744,3.31,73370.8,-9.03,-9.93,-9.93,0,*5F
1512493631.94,13745,3.31,73358.5,-9.03,-9.93,-9.93,0,*5E
1512493633.16,13746,3.31,73360.3,-9.03,-9.89,-9.93,0,*56
1512493634.37,13747,3.31,73362.3,-9.03,-9.89,-9.89,0,*5C
1512493635.6,13748,3.31,73356.8,-9.03,-10.01,-9.93,0,*60
1512493636.83,13749,3.31,73332.0,-9.03,-9.93,-9.93,0,*52
1512493638.05,13750,3.31,73312.0,-9.03,-9.93,-9.93,0,*5A
1512493639.28,13751,3.31,73310.0,-9.03,-9.93,-9.93,0,*5B
1512493640.48,13752,3.31,73318.0,-9.05,-9.93,-9.93,0,*5E
1512493641.7,13753,3.31,73296.8,-9.03,-9.93,-9.93,0,*59
1512493642.92,13754,3.31,73280.8,-9.03,-9.93,-9.93,0,*5E
1512493644.15,13755,3.31,73276.5,-9.03,-9.93,-9.93,0,*5F
1512493645.37,13756,3.31,73276.3,-9.03,-9.93,-9.93,0,*5C
1512493646.59,13757,3.31,73276.0,-9.03,-9.93,-9.93,0,*5D
1512493647.82,13758,3.31,73270.0,-9.03,-9.93,-9.93,0,*52
1512493649.06,13759,3.31,73272.8,-9.03,-10.15,-10.05,0,*52
1512493650.29,13760,3.31,73268.8,-9.03,-10.05,-10.05,0,*59
1512493651.53,13761,3.31,73258.5,-9.03,-10.15,-10.05,0,*59
1512493652.74,13762,3.31,73284.3,-9.05,-10.05,-10.15,0,*5C
1512493653.97,13763,3.31,73280.5,-9.03,-10.05,-10.05,0,*5A
1512493655.18,13764,3.31,73286.3,-9.05,-10.05,-10.05,0,*5B
1512493656.38,13765,3.31,73284.5,-9.05,-10.05,-10.05,0,*5A
1512493657.63,13766,3.31,73292.0,-9.03,-10.15,-10.15,0,*5F
1512493658.83,13767,3.31,73286.3,-9.05,-9.93,-9.93,0,*58
1512493660.02,13768,3.31,73290.5,-9.05,-9.93,-9.89,0,*5C
1512493661.22,13769,3.31,73294.5,-9.05,-9.93,-9.89,0,*5D
1512493662.44,13770,3.31,73306.0,-9.05,-9.83,-9.75,0,*57
1512493663.65,13771,3.31,73318.3,-9.05,-9.75,-9.75,0,*5F
1512493664.86,13772,3.31,73328.8,-9.05,-9.71,-9.75,0,*58
1512493666.09,13773,3.31,73338.3,-9.03,-9.75,-9.71,0,*5F
1512493667.29,13774,3.31,73350.3,-9.05,-9.71,-9.71,0,*5A
1512493668.55,13775,3.31,73352.5,-9.03,-9.71,-9.61,0,*5C
1512493669.78,13776,3.31,73354.3,-9.03,-9.75,-9.71,0,*5A
1512493671.01,13777,3.31,73356.5,-9.03,-9.71,-9.75,0,*5B
1512493672.22,13778,3.31,73360.5,-9.05,-9.71,-9.71,0,*56
1512493673.45,13779,3.31,73358.5,-9.03,-9.71,-9.71,0,*51
1512493674.66,13780,3.31,73356.3,-9.05,-9.71,-9.75,0,*55
1512493675.87,13781,3.31,73350.0,-9.05,-9.71,-9.71,0,*50
1512493677.1,13782,3.31,73352.3,-9.03,-9.71,-9.71,0,*55
1512493678.33,13783,3.31,73356.5,-9.03,-9.75,-9.71,0,*50
1512493679.56,13784,3.31,73354.0,-9.03,-9.71,-9.71,0,*53
1512493680.77,13785,3.31,73352.0,-9.05,-9.71,-9.71,0,*54
1512493682.02,13786,3.31,73358.0,-9.05,-9.61,-9.61,0,*57
1512493683.25,13787,3.31,73356.8,-9.03,-9.71,-9.71,0,*50
1512493684.5,13788,3.31,73354.0,-9.03,-9.61,-9.75,0,*5A
1512493685.73,13789,3.31,73356.3,-9.03,-9.71,-9.71,0,*5E
1512493686.97,13790,3.31,73358.5,-9.03,-9.71,-9.71,0,*56
1512493688.2,13791,3.31,73354.8,-9.03,-9.75,-9.71,0,*53
1512493689.45,13792,3.31,73354.0,-9.03,-9.61,-9.71,0,*55
1512493690.7,13793,3.31,73352.3,-9.03,-9.61,-9.71,0,*54
1512493691.94,13794,3.31,73352.0,-9.03,-9.61,-9.71,0,*53
1512493693.19,13795,3.31,73352.0,-9.03,-9.61,-9.71,0,*52
1512493694.44,13796,3.31,73356.5,-9.03,-9.61,-9.71,0,*51
1512493695.68,13797,3.31,73352.0,-8.99,-9.57,-9.67,0,*50
1512493696.91,13798,3.31,73354.3,-9.03,-9.75,-9.71,0,*5A
1512493698.14,13799,3.31,73352.8,-8.99,-9.67,-9.67,0,*5D
1512493699.36,13800,3.31,73352.3,-8.99,-9.67,-9.67,0,*52
1512493700.61,13801,3.31,73354.3,-9.03,-9.71,-9.61,0,*50
1512493701.87,13802,3.31,73348.5,-9.03,-9.71,-9.61,0,*53
1512493703.1,13803,3.31,73344.3,-9.03,-9.75,-9.75,0,*53
1512493704.35,13804,3.31,73340.8,-8.99,-9.79,-9.83,0,*53
1512493705.57,13805,3.31,73344.5,-8.99,-9.79,-9.79,0,*57
1512493706.82,13806,3.31,73346.5,-9.03,-9.89,-9.83,0,*5C
1512493708.04,13807,3.31,73344.3,-9.05,-9.83,-9.89,0,*5B
1512493709.31,13808,3.31,73346.5,-9.03,-9.83,-9.83,0,*58
1512493710.56,13809,3.31,73340.3,-9.05,-9.83,-9.83,0,*5F
1512493711.79,13810,3.31,73342.5,-9.03,-9.71,-9.75,0,*55
1512493713.02,13811,3.31,73332.0,-9.03,-9.75,-9.75,0,*50
1512493714.26,13812,3.31,73332.0,-9.03,-9.83,-9.71,0,*5E
1512493715.48,13813,3.31,73346.0,-9.03,-9.89,-9.89,0,*52
1512493716.75,13814,3.31,73350.3,-9.03,-9.83,-9.83,0,*55
1512493717.98,13815,3.31,73348.8,-9.03,-9.71,-9.75,0,*50